Location: Newark
(35.5000°N, 109.0000°E)
Time: 20:47:57
(UTC+00:00)

N. Korean satellite - Pass Details

Date: 27 September 2020
Orbit: 452 x 505 km, 97.2° (Epoch: 28 October)

Event Time Altitude Azimuth Distance (km) Brightness Sun altitude
Rises 21:45:04 0° 21° (NNE) 2,570 10.6 -11.3°
Reaches altitude 10° 21:47:18 10° 31° (NNE) 1,675 9.8 -10.8°
Maximum altitude 21:50:36 33° 97° (E) 821 8.5 -10.2°
Drops below altitude 10° 21:53:49 10° 164° (SSE) 1,634 9.4 -9.5°
Sets 21:55:58 0° 174° (S) 2,497 10.2 -9.1°
